Temp
63 63 64 64 64 64 64 64 63 63 63 63 64 63 63 63 64 69 71 78 75 70 72 77 77 76 76 72 72 71 66 63 64 62 70 73 71 73 75 75 74 76 78 82 70
63 63 63 63 63 63 64 64 63 63 63 63 63 63 63 63 68 70 76 72 71 70 77 76 73 74 74 70 70 69 64 66 72 73 70 73 72 75 72 74 75 75 80 75 69
62 62 62 63 63 63 63 63 63 63 63 63 63 63 62 64 71 77 72 72 70 73 80 77 77 74 69 69 69 66 65 71 70 72 71 70 70 73 72 70 77 77 81 81 72
62 62 62 62 62 63 63 63 63 63 63 62 62 62 62 69 66 78 70 71 70 78 77 74 73 69 67 65 68 61 67 69 69 68 67 67 70 69 70 75 82 83 81 81 74
61 61 61 61 62 62 63 63 63 63 62 62 62 62 68 69 73 73 68 69 74 75 75 73 70 69 65 66 64 61 67 68 68 65 66 68 66 68 70 77 80 80 74 74 77
61 60 60 61 61 62 63 63 63 62 62 62 62 61 70 63 75 73 70 69 75 75 73 73 73 72 68 65 64 66 64 66 67 66 66 63 69 68 73 78 76 76 74 77 76
61 60 60 60 61 62 62 62 62 62 62 62 62 64 66 70 73 72 71 71 71 74 69 71 72 71 68 64 66 63 60 66 68 65 64 64 60 62 74 76 72 76 79 77 75
61 60 60 60 61 61 61 62 61 61 62 62 62 66 67 68 73 69 71 69 71 73 72 71 72 69 67 66 63 60 59 56 68 60 62 64 59 72 78 72 72 77 79 78 79
60 59 60 60 60 60 61 61 61 62 62 62 64 67 66 65 68 69 72 68 68 70 70 70 71 65 64 60 58 59 54 57 59 64 61 60 60 70 72 70 70 72 75 76 78
60 60 60 60 60 60 61 61 61 62 63 64 67 63 69 66 66 66 69 69 66 66 65 65 64 61 59 58 50 57 54 56 54 65 60 58 57 64 69 68 67 70 73 74 74
60 60 60 60 60 61 64 68 67 64 64 63 64 65 65 66 67 64 66 66 67 64 58 60 57 52 60 61 62 57 55 54 60 64 57 57 59 63 66 67 68 70 72 74 74
60 60 60 60 60 60 65 63 59 58 54 62 60 60 63 65 62 61 66 62 59 57 55 53 51 60 60 57 54 55 52 53 59 62 55 57 56 61 65 65 67 68 71 72 72
59 59 59 60 60 64 62 59 60 61 53 56 57 57 59 63 59 60 63 60 57 52 53 55 60 57 54 54 52 55 51 53 53 56 57 53 55 57 65 64 67 67 68 67 66
59 58 59 59 60 61 60 60 60 61 51 53 54 58 60 60 55 59 61 59 55 52 53 53 57 53 50 51 54 49 59 53 50 48 46 53 44 57 64 66 66 66 65 66 67
58 58 59 60 63 61 59 60 58 56 36 54 55 64 59 57 56 55 60 60 53 53 52 54 50 48 48 52 54 51 52 50 48 47 44 49 44 57 58 57 64 63 63 62 61
57 57 58 60 62 60 61 59 59 47 35 50 55 53 54 55 53 55 56 60 56 51 51 53 53 53 55 52 53 52 52 51 46 46 39 51 47 51 57 59 61 61 59 56 55
56 56 57 61 59 60 60 60 45 36 53 48 50 52 51 51 50 53 52 52 50 44 47 52 54 53 53 50 49 51 47 39 39 38 39 46 44 51 59 61 57 54 51 50 51
55 56 56 60 60 58 55 49 35 45 47 53 50 49 49 52 52 51 53 49 53 49 45 41 41 49 52 52 51 47 47 33 27 33 39 46 39 52 60 54 50 49 49 49 48
55 55 55 57 58 57 51 38 43 48 52 49 49 47 48 48 50 48 48 49 51 51 42 42 42 50 48 51 52 45 41 50 36 34 30 42 50 54 52 48 47 46 47 46 46
50 50 51 57 59 54 44 41 47 52 53 52 44 49 44 47 46 44 45 47 46 48 51 42 34 47 49 49 50 49 51 39 40 26 25 38 43 46 47 43 44 44 43 44 46
49 45 52 57 56 47 37 41 47 53 54 49 46 45 46 44 47 44 45 48 50 49 50 45 40 44 45 44 45 43 40 41 37 32 28 27 39 52 45 41 41 42 43 43 44
46 40 53 55 42 44 39 43 47 48 52 49 48 46 44 45 42 43 43 47 52 49 43 46 41 34 41 52 50 47 45 43 34 31 34 35 37 53 43 40 40 39 40 42 43
42 42 51 51 37 39 44 44 47 45 47 46 45 47 49 44 38 45 46 48 49 48 42 41 36 31 34 42 41 39 43 43 44 39 32 30 36 43 41 38 38 37 38 40 41
40 36 42 44 46 42 41 40 40 46 46 48 46 47 43 41 44 40 42 45 45 43 42 42 34 32 28 32 36 33 34 33 32 28 29 31 33 41 45 45 39 37 38 39 39
38 36 39 35 37 40 43 40 37 37 43 45 43 42 40 35 36 37 42 40 41 39 40 38 30 35 36 37 37 34 32 33 30 32 25 32 31 37 41 33 34 37 38 38 38
35 35 37 35 36 37 39 38 37 38 39 39 38 42 35 34 36 32 34 36 36 36 35 34 29 31 26 34 34 28 30 32 32 33 33 34 33 44 36 37 37 38 37 36 38
37 39 38 32 33 34 34 35 34 37 34 36 35 34 31 35 37 37 38 37 36 32 30 29 28 26 22 32 28 20 28 34 37 40 39 31 33 30 31 36 38 38 38 37 38
MSLP
1021.73 1021.53 1021.44 1021.31 1021.10 1020.88 1020.76 1020.59 1020.41 1020.19 1019.94 1019.71 1019.48 1019.18 1018.86 1018.60 1018.23 1017.94 1016.92 1015.67 1015.83 1016.39 1016.53 1016.83 1016.84 1016.85 1016.78 1016.71 1016.83 1016.63 1015.44 1014.29 1013.82 1013.67 1012.88 1013.30 1013.18 1013.40 1013.25 1012.84 1012.78 1012.61 1012.01 1012.06 1013.42
1021.85 1021.61 1021.46 1021.34 1021.22 1021.01 1020.79 1020.59 1020.43 1020.24 1019.97 1019.73 1019.48 1019.23 1019.00 1018.68 1018.03 1016.82 1015.35 1015.48 1015.71 1016.10 1016.24 1016.22 1016.43 1016.70 1016.53 1016.65 1016.69 1016.11 1015.16 1013.92 1013.56 1013.26 1013.09 1013.15 1013.17 1012.99 1013.04 1012.32 1011.62 1011.71 1011.68 1012.43 1013.27
1021.83 1021.64 1021.44 1021.28 1021.10 1020.93 1020.73 1020.49 1020.22 1020.04 1019.86 1019.65 1019.37 1019.08 1018.91 1018.62 1017.67 1015.41 1015.14 1015.49 1015.82 1015.98 1015.88 1016.15 1016.23 1016.35 1016.37 1016.56 1016.21 1015.90 1014.63 1013.86 1013.63 1013.58 1013.69 1013.41 1013.12 1013.17 1012.41 1011.23 1010.63 1010.60 1010.72 1011.34 1012.33
1021.74 1021.62 1021.41 1021.18 1020.98 1020.81 1020.59 1020.34 1020.08 1019.79 1019.62 1019.48 1019.31 1019.06 1018.78 1018.37 1017.03 1015.33 1015.25 1015.47 1015.90 1015.98 1016.08 1016.24 1016.30 1016.25 1016.15 1016.01 1015.87 1015.80 1014.77 1014.33 1013.87 1013.91 1014.02 1013.66 1013.17 1012.67 1012.16 1010.56 1010.06 1010.32 1010.62 1010.71 1011.39
1021.52 1021.53 1021.34 1021.11 1020.84 1020.58 1020.31 1020.10 1019.85 1019.61 1019.35 1019.16 1019.06 1018.89 1018.49 1017.76 1016.05 1015.58 1015.62 1015.81 1016.12 1016.23 1016.02 1016.03 1016.06 1016.06 1015.81 1015.78 1015.95 1015.61 1014.58 1014.31 1014.09 1014.24 1014.08 1013.83 1012.46 1012.36 1011.13 1010.47 1009.92 1009.98 1010.37 1010.30 1010.30
1021.39 1021.32 1021.22 1021.03 1020.72 1020.37 1020.04 1019.69 1019.43 1019.16 1018.91 1018.75 1018.70 1018.83 1018.33 1017.12 1015.39 1015.60 1015.82 1016.24 1016.15 1016.14 1016.05 1016.07 1015.76 1016.01 1015.85 1015.84 1015.88 1015.28 1014.96 1014.30 1013.87 1013.79 1013.82 1013.55 1011.83 1012.09 1009.86 1009.93 1009.48 1009.50 1009.50 1009.53 1009.66
1021.29 1021.22 1021.06 1020.86 1020.60 1020.24 1019.83 1019.43 1019.05 1018.71 1018.43 1018.24 1018.46 1018.53 1017.83 1015.99 1015.59 1015.84 1015.95 1016.10 1016.10 1015.98 1016.20 1016.38 1016.19 1016.15 1016.10 1015.82 1015.83 1015.62 1015.03 1013.96 1012.80 1013.03 1013.16 1013.19 1012.05 1010.63 1009.29 1009.54 1009.27 1008.59 1008.46 1008.71 1008.77
1021.26 1021.13 1020.96 1020.70 1020.33 1019.91 1019.40 1019.07 1018.71 1018.33 1018.07 1018.05 1018.24 1018.19 1016.90 1015.95 1015.83 1015.99 1016.08 1016.34 1016.44 1016.36 1016.25 1016.34 1016.47 1016.38 1016.25 1016.14 1015.87 1015.43 1015.09 1013.50 1012.04 1012.98 1013.00 1012.97 1010.40 1009.36 1009.22 1009.36 1008.80 1008.19 1007.78 1007.71 1007.41
1021.11 1021.02 1020.84 1020.55 1020.11 1019.57 1018.99 1018.64 1018.50 1018.37 1018.15 1018.30 1018.28 1017.77 1016.33 1016.22 1016.13 1016.16 1016.06 1016.03 1016.46 1016.63 1016.60 1016.57 1016.38 1016.36 1016.44 1015.94 1015.46 1014.67 1013.41 1012.74 1012.49 1012.18 1012.68 1012.58 1010.51 1009.38 1009.51 1009.38 1008.59 1007.95 1007.18 1006.69 1006.53
1020.83 1020.76 1020.64 1020.38 1019.99 1019.42 1018.75 1018.45 1018.38 1018.40 1018.39 1018.30 1017.98 1017.95 1015.96 1015.96 1016.12 1016.34 1016.41 1016.33 1016.25 1016.44 1016.67 1016.64 1016.45 1016.10 1015.95 1015.54 1013.93 1013.05 1013.17 1012.70 1012.49 1011.88 1012.06 1011.84 1010.73 1010.28 1009.36 1008.98 1007.98 1006.94 1006.44 1006.40 1006.55
1020.54 1020.47 1020.36 1020.13 1019.75 1019.27 1018.51 1018.46 1018.62 1018.56 1018.11 1017.76 1017.31 1016.72 1016.04 1016.09 1016.30 1016.47 1016.53 1016.50 1016.56 1016.60 1016.18 1016.54 1016.08 1014.91 1014.06 1014.00 1013.41 1013.65 1013.28 1012.44 1012.18 1012.08 1011.83 1010.77 1009.83 1009.65 1009.07 1007.83 1006.55 1006.44 1005.93 1006.15 1006.22
1020.23 1020.23 1020.11 1020.07 1019.81 1019.32 1018.82 1019.01 1019.83 1020.23 1018.70 1017.15 1016.74 1016.69 1016.26 1016.43 1016.42 1016.59 1016.80 1016.61 1016.59 1016.34 1016.81 1016.87 1015.48 1014.77 1014.59 1014.51 1014.38 1013.95 1013.21 1012.58 1011.92 1012.17 1012.23 1010.74 1009.64 1008.95 1007.71 1007.08 1006.34 1006.03 1006.04 1006.38 1006.83
1019.97 1019.95 1019.85 1019.81 1019.76 1019.52 1019.46 1019.97 1020.20 1020.14 1019.38 1017.17 1016.95 1016.72 1016.55 1016.46 1016.58 1016.65 1016.78 1016.60 1016.59 1016.61 1016.45 1015.71 1014.85 1015.12 1015.35 1015.11 1014.61 1013.51 1013.47 1012.70 1012.41 1012.57 1012.16 1011.19 1008.95 1008.34 1007.07 1006.56 1006.08 1006.27 1006.49 1007.35 1007.75
1019.92 1019.74 1019.85 1019.61 1019.97 1020.01 1019.92 1020.15 1020.11 1019.95 1018.90 1017.23 1016.85 1016.66 1016.54 1016.26 1016.75 1017.33 1017.24 1017.18 1016.86 1016.56 1016.45 1015.95 1015.62 1015.56 1015.66 1015.18 1014.76 1013.95 1013.17 1013.31 1013.24 1013.42 1012.22 1012.21 1008.84 1008.10 1006.76 1005.95 1006.48 1006.70 1007.47 1008.18 1008.87
1019.97 1019.72 1019.67 1019.55 1019.55 1019.71 1020.12 1020.29 1020.71 1020.29 1018.36 1017.06 1016.54 1016.34 1016.47 1016.50 1016.92 1017.20 1017.45 1017.08 1016.80 1016.58 1016.97 1015.67 1016.02 1016.05 1015.75 1015.16 1015.13 1014.21 1014.42 1013.92 1013.77 1013.42 1012.87 1011.98 1011.12 1007.24 1007.01 1006.84 1007.18 1008.07 1008.62 1009.62 1010.77
1019.91 1019.78 1019.57 1019.85 1019.80 1019.85 1020.14 1020.21 1020.26 1019.90 1017.59 1016.62 1016.16 1016.09 1016.07 1016.42 1016.77 1017.16 1017.16 1017.17 1017.51 1017.02 1016.62 1015.85 1016.34 1016.24 1015.29 1015.34 1015.53 1015.04 1014.80 1014.51 1013.91 1013.73 1011.98 1010.12 1010.19 1008.15 1007.40 1007.67 1008.42 1009.28 1010.53 1011.43 1012.02
1020.07 1019.94 1019.74 1019.48 1019.74 1019.89 1020.13 1019.93 1019.82 1018.67 1017.24 1016.50 1016.14 1015.91 1015.48 1015.83 1016.40 1016.26 1016.56 1016.68 1017.02 1016.77 1016.22 1015.95 1015.60 1015.43 1015.41 1015.35 1015.67 1015.57 1015.32 1014.81 1013.77 1013.43 1011.45 1011.13 1010.38 1008.56 1008.13 1008.81 1010.36 1011.30 1012.69 1013.31 1014.35
1019.80 1020.02 1019.96 1019.36 1019.63 1020.18 1020.25 1020.02 1018.77 1017.52 1016.78 1016.35 1015.96 1016.14 1016.12 1015.66 1015.38 1015.52 1015.40 1015.38 1015.78 1016.46 1016.44 1016.25 1014.32 1015.09 1015.01 1014.87 1014.63 1015.28 1015.43 1016.20 1015.08 1013.99 1012.21 1011.61 1009.56 1008.20 1008.80 1010.79 1012.26 1013.03 1013.56 1013.81 1013.74
1019.65 1019.95 1020.15 1019.62 1019.63 1020.08 1020.63 1019.51 1017.26 1016.62 1016.36 1016.14 1016.07 1015.63 1015.32 1015.86 1015.99 1016.03 1016.09 1015.42 1015.60 1016.00 1016.42 1016.10 1015.39 1015.39 1015.44 1015.01 1015.01 1015.61 1015.72 1015.35 1015.49 1015.60 1014.49 1011.41 1009.40 1009.41 1009.85 1011.62 1012.97 1013.83 1014.67 1015.22 1015.78
1019.88 1019.93 1019.73 1019.61 1019.78 1020.24 1020.41 1018.55 1017.18 1016.66 1016.26 1016.26 1016.06 1015.70 1015.26 1015.56 1016.16 1016.38 1016.18 1016.26 1016.27 1016.51 1016.50 1017.08 1016.69 1015.45 1015.29 1015.48 1015.10 1014.62 1014.82 1015.58 1016.04 1015.41 1013.86 1010.74 1009.78 1009.50 1010.81 1012.40 1013.70 1014.47 1015.68 1016.28 1016.48
1019.91 1020.04 1019.84 1019.70 1019.77 1020.12 1019.47 1018.34 1017.20 1016.88 1016.70 1016.69 1016.11 1015.95 1015.87 1016.16 1016.18 1016.54 1016.27 1016.56 1016.39 1016.72 1016.99 1017.48 1017.25 1015.52 1015.74 1014.97 1014.46 1015.20 1014.92 1015.21 1015.54 1015.88 1014.07 1012.08 1009.97 1010.08 1011.76 1013.66 1014.56 1015.73 1016.25 1016.59 1016.72
1019.91 1019.89 1019.53 1019.78 1019.98 1019.28 1018.31 1017.91 1017.47 1017.14 1016.99 1016.85 1016.69 1016.48 1016.38 1016.70 1016.42 1016.78 1016.39 1016.43 1016.53 1017.13 1017.40 1017.30 1017.08 1016.07 1014.70 1013.78 1014.25 1014.55 1014.39 1014.70 1014.56 1014.14 1013.47 1011.77 1010.15 1010.78 1012.83 1014.31 1015.47 1016.45 1017.11 1017.20 1017.32
1020.07 1019.73 1019.44 1019.44 1019.11 1018.67 1018.26 1017.69 1017.63 1017.56 1017.38 1017.33 1017.06 1016.80 1016.73 1017.04 1017.42 1016.79 1016.80 1017.10 1017.28 1017.60 1017.92 1018.22 1017.67 1016.56 1014.71 1014.24 1014.82 1015.15 1014.64 1014.52 1014.20 1013.75 1012.91 1012.09 1010.85 1012.89 1014.02 1015.18 1016.00 1016.85 1017.57 1017.94 1017.77
1020.54 1020.53 1020.43 1019.27 1018.97 1018.89 1018.47 1017.92 1018.04 1018.07 1017.97 1017.76 1017.28 1017.51 1017.56 1017.81 1018.08 1017.51 1017.70 1018.00 1018.34 1018.73 1018.94 1019.09 1018.62 1018.14 1017.03 1016.49 1016.76 1016.53 1016.47 1016.42 1016.01 1014.73 1013.65 1013.02 1012.84 1013.43 1013.59 1014.45 1015.62 1016.65 1017.85 1018.10 1018.04
1020.94 1020.18 1020.00 1019.66 1019.49 1019.29 1018.75 1018.47 1018.30 1018.37 1018.52 1018.44 1018.09 1018.04 1018.34 1018.52 1018.80 1018.89 1018.98 1018.98 1019.13 1019.68 1019.82 1020.08 1019.40 1018.73 1017.77 1017.43 1017.31 1017.06 1017.03 1016.64 1016.41 1015.88 1015.40 1014.12 1014.45 1014.21 1014.77 1016.05 1016.41 1017.01 1017.44 1017.84 1017.95
1020.76 1020.66 1020.65 1020.58 1019.91 1019.54 1019.48 1018.36 1018.48 1019.09 1019.88 1019.42 1019.10 1018.90 1019.74 1019.83 1019.52 1019.86 1020.62 1020.34 1020.07 1020.42 1020.72 1021.07 1019.90 1019.62 1018.65 1018.26 1018.06 1017.74 1017.39 1016.67 1016.39 1016.04 1015.49 1015.12 1014.31 1014.56 1015.84 1016.39 1016.78 1016.88 1017.22 1017.33 1017.27
1021.15 1021.18 1020.55 1020.82 1020.46 1020.25 1019.72 1019.39 1019.66 1019.83 1020.84 1020.65 1020.68 1020.44 1020.60 1020.72 1020.98 1021.18 1021.66 1021.72 1021.42 1021.35 1021.56 1021.74 1021.07 1020.56 1019.18 1018.98 1018.90 1017.79 1015.91 1015.95 1015.25 1014.91 1014.83 1014.75 1015.33 1016.34 1016.63 1016.68 1016.65 1016.55 1016.55 1016.51 1016.54
Wind_Speed
10 11 11 12 12 12 12 11 11 11 11 11 12 12 11 11 6 3 7 3 5 13 8 9 4 4 2 3 1 1 5 6 5 5 2 4 5 4 1 7 5 8 8 4 6
8 9 9 10 10 11 10 11 11 11 11 11 11 11 12 12 3 9 3 5 11 14 10 12 8 7 4 3 3 5 5 6 5 6 5 4 7 7 6 11 15 12 15 9 6
6 7 8 8 9 10 10 10 10 10 11 12 11 11 11 6 6 3 5 8 14 9 6 4 7 6 5 3 6 4 8 8 7 11 7 7 9 5 10 15 18 15 12 8 11
5 7 7 8 9 10 10 11 11 10 10 11 11 12 12 3 7 2 0 10 12 8 10 8 8 6 6 8 5 7 12 11 5 4 4 7 5 9 13 24 23 20 16 14 12
5 6 6 7 9 10 11 12 12 12 10 10 9 9 3 3 8 3 6 10 10 8 9 8 8 5 8 5 4 9 10 10 11 10 10 11 22 16 20 24 25 20 15 18 17
6 6 7 8 9 11 13 14 15 14 13 11 7 7 3 10 3 5 8 7 6 9 9 8 6 5 3 6 9 2 8 13 10 14 11 11 25 6 16 15 19 15 18 16 16
5 5 6 7 9 11 13 14 15 15 13 9 6 3 4 14 3 5 6 3 5 7 5 3 4 6 3 5 3 4 11 15 17 11 10 8 12 18 22 11 16 20 15 12 14
5 6 7 8 10 12 14 14 13 8 6 2 8 4 8 2 4 5 4 3 2 3 1 2 4 1 4 2 3 7 4 11 6 3 3 9 20 20 12 9 13 17 17 15 19
5 6 8 9 11 13 15 13 2 7 9 11 4 3 7 3 1 1 2 4 6 3 4 5 4 2 2 8 9 8 13 15 13 5 3 12 13 14 7 9 20 21 24 23 24
5 6 8 9 11 13 16 3 4 3 3 2 2 3 3 1 2 3 2 6 3 8 5 3 4 7 5 9 13 14 11 11 11 9 10 15 20 21 24 23 26 26 24 21 17
6 7 9 9 11 13 8 1 2 2 1 3 7 6 5 2 1 3 1 4 4 3 8 4 9 14 20 21 21 14 17 21 20 18 15 21 23 19 21 26 27 23 20 16 12
5 7 8 9 11 11 3 4 3 2 9 8 12 9 3 3 4 3 3 6 5 8 5 4 13 17 9 6 11 17 22 22 21 15 8 17 23 25 26 22 22 22 17 12 7
0 2 4 7 10 4 3 3 4 3 5 6 2 3 2 4 4 2 6 4 4 8 12 18 10 2 13 13 14 18 16 21 23 15 14 13 13 4 5 9 14 11 9 5 4
4 4 5 6 1 2 1 3 5 4 5 3 1 1 2 2 3 2 1 1 2 7 7 10 5 7 4 10 15 19 14 16 14 8 10 8 11 11 12 18 12 13 12 14 15
6 4 2 4 1 2 3 3 1 3 8 2 1 1 0 1 2 6 1 0 5 3 3 5 1 2 7 12 6 9 5 4 4 8 8 5 8 6 5 4 7 11 13 16 16
5 5 2 1 1 2 3 2 2 3 8 2 2 2 4 1 3 2 3 3 0 3 4 12 1 5 5 3 6 1 4 7 2 4 10 10 9 2 3 2 9 12 15 18 18
7 4 2 0 1 4 1 2 2 6 3 4 3 3 3 6 4 4 3 3 1 6 7 16 15 3 4 8 3 4 5 6 6 6 8 6 3 7 11 6 13 15 13 14 12
4 2 2 1 4 4 1 2 9 4 6 2 2 3 4 4 6 4 6 11 12 8 9 11 22 7 7 6 3 6 7 4 7 10 16 11 9 6 5 17 13 14 14 15 19
2 2 1 3 6 2 1 7 5 6 6 5 1 8 6 0 4 0 4 11 6 9 10 5 9 2 5 1 2 5 7 8 4 5 7 10 17 8 9 9 12 14 14 15 13
2 2 3 3 8 2 3 12 10 4 2 5 10 6 10 6 5 2 3 3 2 2 4 1 7 6 2 2 7 8 3 7 5 6 10 14 14 11 11 5 7 11 11 12 10
2 2 1 6 5 3 8 10 8 7 8 7 10 12 11 10 8 5 4 2 5 4 5 9 6 9 1 9 17 5 7 6 3 5 5 4 9 3 3 5 7 7 9 10 12
3 3 2 6 5 4 9 6 3 6 3 5 4 9 12 9 9 9 11 10 4 3 5 8 6 12 23 21 8 7 10 13 9 10 10 14 18 12 6 8 5 5 6 7 8
3 2 0 2 7 8 5 5 6 6 9 4 7 6 4 8 7 11 11 3 5 1 1 5 3 8 7 7 3 8 11 13 16 12 19 19 14 6 9 9 6 4 2 2 4
2 4 1 2 2 5 10 8 9 1 7 11 8 6 6 9 9 10 8 2 3 2 4 2 4 9 10 14 11 5 3 6 5 5 8 8 10 14 17 20 5 3 2 2 3
1 2 2 6 9 11 6 4 3 6 2 3 5 7 4 5 3 8 9 4 2 5 2 2 10 15 17 18 15 14 13 16 17 16 10 18 18 21 18 4 2 1 3 6 6
3 3 2 1 2 6 13 10 16 14 9 9 12 11 3 8 9 12 6 7 11 2 0 1 7 6 9 12 13 10 14 20 21 23 24 25 27 11 1 1 4 5 5 6 5
1 0 1 3 4 6 6 6 4 7 2 2 3 2 3 5 1 1 4 5 5 4 1 4 4 6 16 15 12 13 21 21 23 24 24 22 10 4 1 6 8 7 9 10 8
Wind_Direction
39 36 30 28 27 25 18 14 8 360 354 348 344 341 337 339 310 176 243 200 173 152 123 135 139 132 152 120 124 225 232 243 239 204 208 182 238 168 290 264 217 203 246 314 126
30 30 27 21 15 11 9 3 357 352 345 340 337 333 333 335 280 248 237 167 148 157 146 167 167 161 162 158 189 227 238 243 227 226 244 234 242 283 243 249 253 249 241 225 185
13 14 15 10 4 357 352 348 343 340 337 332 328 324 325 315 289 247 136 177 160 171 157 146 144 172 201 197 192 184 242 248 238 243 258 272 260 243 263 268 260 268 281 242 222
352 355 357 355 351 343 339 335 327 322 321 319 319 320 318 243 295 115 19 159 157 157 136 142 159 181 218 216 191 238 242 247 264 224 227 259 297 251 242 260 277 287 280 277 239
336 337 338 337 336 331 328 325 317 308 303 302 304 316 284 219 246 80 104 129 148 165 178 173 181 190 223 220 203 235 252 257 252 257 255 275 266 266 263 263 274 275 267 262 263
326 332 333 330 326 327 322 319 317 311 303 292 280 305 216 258 77 134 124 138 175 182 179 181 224 216 253 235 222 343 274 278 272 256 241 242 269 280 256 262 277 271 266 269 263
306 318 325 322 316 314 310 311 312 309 302 285 230 228 226 255 55 133 140 162 173 186 176 210 152 194 166 255 270 316 294 290 268 254 230 216 259 235 264 277 274 284 283 273 259
306 315 323 323 318 312 310 316 321 319 321 188 165 190 254 43 126 149 159 90 104 100 187 159 166 191 242 354 272 270 244 282 293 166 183 200 273 282 296 274 272 287 288 280 276
306 314 323 321 319 314 313 319 323 50 89 125 152 238 259 141 238 56 207 153 116 91 69 113 163 207 208 248 273 226 269 264 286 238 166 209 277 283 269 283 287 280 277 276 288
291 299 309 313 316 313 320 312 167 144 140 231 110 229 214 312 99 88 52 147 131 136 121 157 153 205 206 216 247 270 256 250 259 286 244 270 266 280 287 290 280 276 277 282 287
276 292 305 311 318 324 335 198 260 182 307 280 271 265 277 76 112 81 116 128 116 191 197 180 210 209 225 226 247 284 271 273 278 279 294 282 291 297 288 278 275 285 278 281 288
279 294 303 311 315 322 311 62 81 64 296 256 258 272 339 354 296 114 182 187 189 218 143 176 236 237 262 266 250 258 268 275 279 274 286 289 297 289 273 276 275 279 286 297 334
321 324 330 326 323 320 37 89 124 155 260 289 233 237 326 196 230 254 203 150 202 195 208 245 268 263 219 239 259 247 264 274 284 308 274 292 278 265 278 266 279 283 284 320 54
107 59 3 330 224 4 71 157 175 185 271 250 168 156 175 136 107 347 17 350 190 278 230 257 304 235 210 241 246 278 262 267 282 298 291 352 295 297 263 274 322 40 62 93 67
67 68 80 3 119 219 69 135 168 246 289 59 112 37 119 12 127 42 354 197 264 253 221 284 221 183 223 240 219 262 1 304 297 275 298 250 260 315 251 269 61 66 90 71 39
56 36 144 151 233 81 115 163 218 222 246 190 171 176 145 78 98 143 87 76 13 274 248 270 222 246 253 184 217 232 295 274 196 263 257 257 216 328 354 116 62 69 67 40 42
24 3 219 139 23 133 213 241 236 228 360 198 211 204 154 158 147 158 133 154 291 318 292 306 284 220 230 246 152 222 305 308 269 217 272 109 278 271 278 356 59 85 59 55 48
359 289 203 205 132 150 88 156 223 193 255 340 208 184 258 186 250 227 275 256 227 216 284 287 301 198 162 230 213 172 175 202 271 284 295 315 254 255 244 90 78 55 48 40 37
9 66 283 221 155 123 193 230 249 206 197 217 214 256 249 212 255 169 234 277 314 200 213 236 249 352 227 180 213 103 207 234 243 272 273 257 261 239 101 84 62 54 42 35 28
100 134 213 173 150 110 211 239 237 246 185 255 265 246 267 256 233 220 271 139 207 201 345 254 270 238 210 195 214 208 202 219 234 244 242 260 263 265 182 74 53 50 32 21 21
121 163 99 167 150 163 217 230 256 255 252 248 255 259 269 280 257 265 249 243 218 193 166 174 220 283 181 226 260 201 211 211 110 226 258 274 274 70 59 110 61 35 19 14 16
159 167 132 182 167 198 217 197 240 269 265 267 288 255 260 281 273 264 254 232 108 138 252 207 243 256 265 271 256 271 253 214 227 228 230 249 247 331 111 111 76 52 24 16 11
160 110 84 217 201 209 228 217 228 204 232 223 242 231 241 263 270 253 257 103 43 4 334 47 281 271 248 241 335 256 261 254 264 275 252 258 255 109 137 135 81 83 63 13 8
146 146 249 220 194 231 226 249 231 185 238 233 237 236 249 256 249 271 279 308 55 58 25 22 210 238 287 300 302 265 312 318 283 280 331 295 313 308 307 309 34 123 280 282 339
215 199 338 184 221 220 218 185 193 210 260 259 226 232 244 231 235 248 276 310 107 20 55 240 260 272 277 284 285 274 274 275 266 275 264 285 278 276 292 344 37 49 278 249 264
162 173 104 102 31 199 213 236 243 244 255 244 253 265 301 247 252 286 301 264 272 53 329 116 272 291 271 275 263 268 271 269 273 270 264 262 267 299 51 311 276 292 305 280 293
131 116 61 124 164 180 208 219 183 161 134 129 131 154 206 255 162 162 241 264 261 246 243 263 267 265 270 283 312 269 248 265 273 272 269 269 306 88 299 299 312 313 316 305 305